Date String (YYYY-MM-DD hh:mm:ss) UTC,Instrument flags,Ambient pressure (hPa),Sample flow (lpm),Bypass flow (lpm),Sample temperature (°C),Ambient temperature (°C),ASC tube jacket temperature (°C),LED temperature (°C),Box temperature (°C),Sample RH (%),Span deviation,Mass concentration (μg/m³),Mass concentration (μg/m³),Mass concentration (μg/m³)
DateTimeUTC,F1_M11,P_M11,Q1_M11,Q2_M11,T1_M11,T2_M11,T3_M11,T4_M11,T5_M11,U1_M11,ZSPAN_M11,X0_M11,X2_M11,X1_M11
2023-01-23 09:00:00,,0824.7,4.99,0.00,22.6,21.2,00.0,31.4,24.4,11.5,0001.4,0034.79,0022.29,0021.53
2023-01-23 09:01:00,,0824.7,4.99,0.00,22.6,21.1,00.0,31.4,24.4,11.5,0000.9,0034.61,0022.08,0021.35
2023-01-23 09:02:00,,0824.7,5.00,0.00,22.6,21.1,00.0,31.4,24.4,11.5,0000.8,0033.91,0021.95,0021.25
2023-01-23 09:03:00,,0824.6,5.00,0.00,22.6,21.1,00.0,31.4,24.4,11.4,0000.9,0033.03,0021.77,0021.08
2023-01-23 09:04:00,,0824.6,5.00,0.00,22.6,21.1,00.0,31.4,24.4,11.3,0000.5,0031.96,0021.47,0020.78
2023-01-23 09:05:00,,0824.7,5.00,0.00,22.6,21.1,00.0,31.4,24.4,11.3,0000.0,0031.39,0021.18,0020.52
2023-01-23 09:06:00,,0824.7,5.01,0.00,22.6,21.1,00.0,31.4,24.4,11.2,-000.0,0030.21,0020.87,0020.21
2023-01-23 09:07:00,,0824.7,5.01,0.00,22.6,21.1,00.0,31.4,24.4,11.1,0000.2,0029.37,0020.48,0019.81
2023-01-23 09:08:00,,0824.8,4.99,0.00,22.6,21.1,00.0,31.4,24.4,11.0,0000.3,0028.71,0019.96,0019.31
2023-01-23 09:09:00,,0824.8,5.00,0.00,22.6,21.1,00.0,31.4,24.4,11.0,0000.5,0027.85,0019.47,0018.80
2023-01-23 09:10:00,,0824.8,5.01,0.00,22.6,21.1,00.0,31.4,24.4,11.0,0000.5,0027.04,0018.96,0018.32
2023-01-23 09:11:00,,0824.9,5.01,0.00,22.6,21.1,00.0,31.4,24.4,11.0,0000.7,0026.22,0018.51,0017.82
2023-01-23 09:12:00,,0824.9,5.01,0.00,22.6,21.1,00.0,31.4,24.3,11.0,0001.6,0025.09,0017.98,0017.30
2023-01-23 09:13:00,,0824.9,5.01,0.00,22.6,21.1,00.0,31.3,24.3,11.0,0001.7,0024.18,0017.32,0016.63
2023-01-23 09:14:00,,0824.9,5.01,0.00,22.6,21.1,00.0,31.3,24.3,10.9,0001.4,0023.22,0016.61,0015.97
2023-01-23 09:15:00,,0824.9,5.02,0.00,22.5,21.1,00.0,31.3,24.3,10.9,0001.7,0022.31,0015.98,0015.36
2023-01-23 09:16:00,,0824.9,5.00,0.00,22.5,21.1,00.0,31.3,24.3,11.0,0002.0,0021.44,0015.44,0014.86
2023-01-23 09:17:00,,0824.9,5.00,0.00,22.5,21.1,00.0,31.3,24.3,10.9,0001.5,0020.70,0014.97,0014.42
2023-01-23 09:18:00,,0824.9,5.00,0.00,22.5,21.1,00.0,31.3,24.3,11.0,0001.6,0019.83,0014.58,0014.05
2023-01-23 09:19:00,,0824.9,5.01,0.00,22.5,21.1,00.0,31.3,24.3,10.9,0002.0,0019.45,0014.33,0013.81
2023-01-23 09:20:00,,0824.9,5.00,0.00,22.6,21.6,00.0,31.3,24.4,10.9,0002.1,0019.23,0014.15,0013.64
2023-01-23 09:21:00,,0824.9,5.00,0.00,22.6,22.4,00.0,31.3,24.6,10.9,0001.4,0019.17,0013.95,0013.47
2023-01-23 09:22:00,,0824.9,5.00,0.00,22.7,22.9,00.0,31.3,24.8,10.8,0001.4,0018.74,0013.67,0013.23
2023-01-23 09:23:00,,0824.9,4.98,0.00,22.8,22.6,00.0,31.4,24.8,10.8,0001.3,0018.48,0013.54,0013.12
2023-01-23 09:24:00,,0824.9,4.99,0.00,22.8,22.3,00.0,31.4,24.7,10.7,0001.3,0018.51,0013.52,0013.09
2023-01-23 09:25:00,,0824.9,5.00,0.00,22.8,22.0,00.0,31.4,24.7,10.7,0001.7,0018.52,0013.52,0013.09
2023-01-23 09:26:00,,0824.9,4.99,0.00,22.8,21.8,00.0,31.4,24.6,10.7,0001.9,0018.81,0013.60,0013.13
2023-01-23 09:27:00,,0825.0,5.00,0.00,22.8,21.6,00.0,31.4,24.6,10.8,0000.1,0018.96,0013.66,0013.18
2023-01-23 09:28:00,,0825.0,5.02,0.00,22.8,21.5,00.0,31.5,24.6,10.9,0000.0,0019.26,0013.78,0013.31
2023-01-23 09:29:00,,0825.1,4.99,0.00,22.7,21.4,00.0,31.5,24.5,10.9,0000.0,0019.40,0013.86,0013.39
2023-01-23 09:30:00,,0825.1,5.01,0.00,22.7,21.3,00.0,31.5,24.5,10.9,0000.0,0019.39,0013.92,0013.45
2023-01-23 09:31:00,,0825.1,4.97,0.00,22.7,21.2,00.0,31.5,24.4,10.9,0000.0,0019.61,0014.08,0013.60
2023-01-23 09:32:00,,0825.2,5.00,0.00,22.7,21.1,00.0,31.5,24.4,10.9,0001.4,0019.58,0014.11,0013.61
2023-01-23 09:33:00,,0825.2,5.00,0.00,22.7,21.1,00.0,31.5,24.3,10.9,0003.0,0019.77,0014.24,0013.71
2023-01-23 09:34:00,,0825.2,4.99,0.00,22.7,21.0,00.0,31.5,24.3,11.3,0002.9,0020.60,0014.59,0014.04
2023-01-23 09:35:00,,0825.2,5.00,0.00,22.6,21.0,00.0,31.4,24.3,11.7,0002.3,0021.85,0015.33,0014.77
2023-01-23 09:36:00,,0825.2,4.99,0.00,22.6,21.2,00.0,31.4,24.3,11.9,0001.6,0023.28,0016.25,0015.67
2023-01-23 09:37:00,,0825.2,5.03,0.00,22.7,22.1,00.0,31.4,24.6,12.0,0000.9,0024.16,0017.07,0016.52
2023-01-23 09:38:00,,0825.2,5.00,0.00,22.8,22.7,00.0,31.4,24.7,12.0,-000.0,0024.97,0017.70,0017.17
2023-01-23 09:39:00,,0825.2,5.00,0.00,22.8,22.4,00.0,31.5,24.8,12.0,-000.4,0025.55,0018.19,0017.64
2023-01-23 09:40:00,,0825.2,5.03,0.00,22.8,22.2,00.0,31.5,24.7,12.0,-000.8,0026.26,0018.72,0018.15
2023-01-23 09:41:00,,0825.2,4.99,0.00,22.8,21.9,00.0,31.5,24.6,12.0,-001.1,0027.39,0019.36,0018.74
2023-01-23 09:42:00,,0825.2,5.00,0.00,22.8,21.7,00.0,31.5,24.6,12.0,-001.3,0028.36,0019.88,0019.26
2023-01-23 09:43:00,,0825.3,5.01,0.00,22.8,21.6,00.0,31.5,24.6,12.0,-001.3,0028.99,0020.42,0019.81
2023-01-23 09:44:00,,0825.3,5.00,0.00,22.8,21.5,00.0,31.5,24.6,12.1,-001.6,0029.72,0020.95,0020.31
2023-01-23 09:45:00,,0825.3,5.00,0.00,22.8,21.4,00.0,31.5,24.5,12.1,-001.7,0030.33,0021.43,0020.79
2023-01-23 09:46:00,,0825.3,5.00,0.00,22.8,21.4,00.0,31.5,24.5,12.1,-001.6,0030.05,0021.45,0020.84
2023-01-23 09:47:00,,0825.4,4.99,0.00,22.8,21.3,00.0,31.5,24.5,12.0,-001.4,0029.15,0021.11,0020.52
2023-01-23 09:48:00,,0825.3,5.01,0.00,22.7,21.3,00.0,31.5,24.5,11.9,-001.1,0028.50,0020.72,0020.14
2023-01-23 09:49:00,,0825.2,4.98,0.00,22.7,21.2,00.0,31.5,24.5,11.9,-000.7,0028.18,0020.43,0019.84
2023-01-23 09:50:00,,0825.2,5.00,0.00,22.7,21.2,00.0,31.5,24.5,11.9,-000.3,0028.16,0020.14,0019.55
2023-01-23 09:51:00,,0825.3,4.99,0.00,22.7,21.2,00.0,31.5,24.5,11.9,0000.1,0028.14,0019.90,0019.31
2023-01-23 09:52:00,,0825.3,5.00,0.00,22.7,21.2,00.0,31.5,24.5,11.9,0000.3,0027.75,0019.70,0019.12
2023-01-23 09:53:00,,0825.3,4.99,0.00,22.7,21.2,00.0,31.5,24.5,11.9,0000.4,0027.04,0019.49,0018.98
2023-01-23 09:54:00,,0825.3,5.00,0.00,22.7,21.1,00.0,31.5,24.5,11.8,0000.7,0026.68,0019.31,0018.83
2023-01-23 09:55:00,,0825.4,5.00,0.00,22.7,21.1,00.0,31.4,24.4,11.8,0000.8,0026.56,0019.11,0018.63
2023-01-23 09:56:00,,0825.3,5.00,0.00,22.7,21.1,00.0,31.4,24.4,11.7,0001.0,0026.10,0018.88,0018.43
2023-01-23 09:57:00,,0825.3,5.01,0.00,22.6,21.1,00.0,31.4,24.4,11.8,0000.7,0026.53,0018.76,0018.28
2023-01-23 09:58:00,,0825.3,5.00,0.00,22.7,21.8,00.0,31.4,24.5,11.7,0000.1,0026.45,0018.64,0018.15
2023-01-23 09:59:00,,0825.3,5.00,0.00,22.8,22.5,00.0,31.4,24.7,11.6,-000.0,0026.37,0018.53,0018.05
